Location: Saluda
(35.2377°N, 82.3468°W)
Time: 04:40:43
(UTC+00:00)

Vanguard 2 - Pass Details

Date: 08 October 2022
Orbit: 553 x 2933 km, 32.9° (Epoch: 04 December)

Event Time Altitude Azimuth Distance (km) Brightness Sun altitude
Rises 16:07:11 0° 233° (SW) 3,609 11.1 45.6°
Reaches altitude 10° 16:09:25 10° 227° (SW) 2,890 10.8 45.8°
Maximum altitude 16:16:24 52° 153° (SSE) 1,794 12.3 46.3°
Drops below altitude 10° 16:28:03 10° 82° (E) 4,712 11.8 47.1°
Sets 16:32:43 0° 79° (E) 6,066 12.2 47.4°
